| time (UTC) | temp F | wind direction | speed MPH | gust MPH | rain 1hr in | rain 24hr in | rain mn in | humidity % | barometer mb |
| 20260504160401 | 74 | 321 | 0.0 | 5.0 | 0.00 | 0.03 | 0.00 | 49 | 1003.1 |
| 20260504160301 | 73 | 105 | 1.0 | 5.0 | 0.00 | 0.03 | 0.00 | 50 | 1003.0 |
| 20260504151059 | 71 | 323 | 1.0 | 4.0 | 0.00 | 0.09 | 0.00 | 51 | 1003.6 |
| 20260504151001 | 70 | 311 | 2.0 | 6.0 | 0.00 | 0.09 | 0.00 | 51 | 1003.7 |
| 20260504150900 | 70 | 139 | 2.0 | 6.0 | 0.00 | 0.09 | 0.00 | 50 | 1003.6 |
| 20260504150800 | 70 | 284 | 0.0 | 6.0 | 0.00 | 0.09 | 0.00 | 49 | 1003.6 |
| 20260504150701 | 70 | 236 | 2.0 | 6.0 | 0.00 | 0.09 | 0.00 | 50 | 1003.7 |
| 20260504150600 | 70 | 358 | 1.0 | 6.0 | 0.00 | 0.09 | 0.00 | 49 | 1003.7 |
| 20260504150501 | 70 | 61 | 1.0 | 6.0 | 0.00 | 0.09 | 0.00 | 51 | 1003.7 |
| 20260504150359 | 70 | 356 | 3.0 | 6.0 | 0.00 | 0.09 | 0.00 | 50 | 1003.7 |
| 20260504150259 | 70 | 304 | 1.0 | 6.0 | 0.00 | 0.09 | 0.00 | 52 | 1003.7 |
| 20260504150200 | 70 | 13 | 2.0 | 6.0 | 0.00 | 0.09 | 0.00 | 50 | 1003.8 |
| 20260504141300 | 66 | 326 | 0.0 | 5.0 | 0.00 | 0.11 | 0.00 | 57 | 1004.2 |
| 20260504141200 | 66 | 244 | 4.0 | 5.0 | 0.00 | 0.11 | 0.00 | 57 | 1004.1 |
| 20260504141101 | 66 | 283 | 5.0 | 5.0 | 0.00 | 0.11 | 0.00 | 57 | 1004.2 |
| 20260504141000 | 66 | 257 | 3.0 | 5.0 | 0.00 | 0.11 | 0.00 | 59 | 1004.3 |
| 20260504140900 | 66 | 315 | 3.0 | 3.0 | 0.00 | 0.11 | 0.00 | 60 | 1004.3 |
| 20260504140801 | 66 | 25 | 0.0 | 5.0 | 0.00 | 0.11 | 0.00 | 60 | 1004.2 |
| 20260504140700 | 66 | 1 | 1.0 | 5.0 | 0.00 | 0.11 | 0.00 | 63 | 1004.3 |
| 20260504140602 | 65 | 283 | 1.0 | 5.0 | 0.00 | 0.11 | 0.00 | 62 | 1004.3 |
| 20260504140402 | 65 | 272 | 1.0 | 5.0 | 0.00 | 0.11 | 0.00 | 61 | 1004.3 |
| 20260504140300 | 65 | 63 | 0.0 | 5.0 | 0.00 | 0.11 | 0.00 | 61 | 1004.3 |
| 20260504140200 | 65 | 150 | 1.0 | 5.0 | 0.00 | 0.11 | 0.00 | 61 | 1004.4 |
| 20260504130800 | 59 | 309 | 0.0 | 1.0 | 0.00 | 0.11 | 0.00 | 71 | 1005.0 |
| 20260504130659 | 59 | 319 | 0.0 | 2.0 | 0.00 | 0.11 | 0.00 | 71 | 1005.0 |
| 20260504130559 | 59 | 319 | 0.0 | 2.0 | 0.00 | 0.11 | 0.00 | 71 | 1005.1 |
| 20260504130459 | 59 | 88 | 0.0 | 2.0 | 0.00 | 0.11 | 0.00 | 72 | 1005.1 |
| 20260504130359 | 59 | 326 | 0.0 | 2.0 | 0.00 | 0.11 | 0.00 | 72 | 1005.1 |
| 20260504120300 | 53 | 95 | 0.0 | 1.0 | 0.00 | 0.11 | 0.00 | 83 | 1005.2 |
| 20260504120200 | 52 | 95 | 0.0 | 1.0 | 0.00 | 0.11 | 0.00 | 83 | 1005.2 |
| 20260504110601 | 41 | 299 | 0.0 | 0.0 | 0.00 | 0.11 | 0.00 | 92 | 1005.3 |
| 20260504110500 | 41 | 299 | 0.0 | 0.0 | 0.00 | 0.11 | 0.00 | 92 | 1005.2 |
| 20260504110359 | 41 | 299 | 0.0 | 1.0 | 0.00 | 0.11 | 0.00 | 92 | 1005.0 |
| 20260504110300 | 41 | 299 | 0.0 | 1.0 | 0.00 | 0.11 | 0.00 | 92 | 1005.0 |
| 20260504110159 | 41 | 299 | 0.0 | 1.0 | 0.00 | 0.11 | 0.00 | 92 | 1005.0 |
| 20260504100359 | 41 | 274 | 0.0 | 0.0 | 0.00 | 0.11 | 0.00 | 91 | 1005.5 |
| 20260504100259 | 41 | 274 | 0.0 | 0.0 | 0.00 | 0.11 | 0.00 | 91 | 1005.5 |
| 20260504100159 | 41 | 275 | 0.0 | 0.0 | 0.00 | 0.11 | 0.00 | 91 | 1005.4 |
| 20260504081959 | 43 | 274 | 0.0 | 0.0 | 0.00 | 0.11 | 0.00 | 89 | 1005.4 |
| 20260504081859 | 43 | 274 | 0.0 | 0.0 | 0.00 | 0.11 | 0.00 | 89 | 1005.3 |
| 20260504081759 | 43 | 274 | 0.0 | 0.0 | 0.00 | 0.11 | 0.00 | 89 | 1005.3 |
| 20260504081559 | 43 | 274 | 0.0 | 0.0 | 0.00 | 0.11 | 0.00 | 89 | 1005.3 |
| 20260504081459 | 43 | 274 | 0.0 | 0.0 | 0.00 | 0.11 | 0.00 | 89 | 1005.3 |
| 20260504081402 | 43 | 274 | 0.0 | 0.0 | 0.00 | 0.11 | 0.00 | 89 | 1005.3 |
| 20260504081300 | 43 | 274 | 0.0 | 0.0 | 0.00 | 0.11 | 0.00 | 89 | 1005.2 |
| 20260504081058 | 43 | 275 | 0.0 | 0.0 | 0.00 | 0.11 | 0.00 | 89 | 1005.3 |
| 20260504081000 | 43 | 274 | 0.0 | 0.0 | 0.00 | 0.11 | 0.00 | 89 | 1005.2 |
| 20260504080801 | 43 | 274 | 0.0 | 0.0 | 0.00 | 0.11 | 0.00 | 89 | 1005.3 |
| 20260504080659 | 43 | 274 | 0.0 | 0.0 | 0.00 | 0.11 | 0.00 | 89 | 1005.3 |
| 20260504080459 | 43 | 274 | 0.0 | 0.0 | 0.00 | 0.11 | 0.00 | 89 | 1005.3 |
| 20260504080400 | 43 | 274 | 0.0 | 0.0 | 0.00 | 0.11 | 0.00 | 89 | 1005.3 |
| 20260504080258 | 43 | 274 | 0.0 | 0.0 | 0.00 | 0.11 | 0.00 | 89 | 1005.3 |
| 20260504080202 | 43 | 274 | 0.0 | 0.0 | 0.00 | 0.11 | 0.00 | 89 | 1005.3 |
| 20260504070402 | 47 | 274 | 0.0 | 0.0 | 0.00 | 0.11 | 0.00 | 81 | 1005.9 |
| 20260504070159 | 47 | 275 | 0.0 | 0.0 | 0.00 | 0.11 | 0.00 | 81 | 1006.0 |
| 20260504060158 | 52 | 302 | 1.0 | 3.0 | 0.00 | 0.11 | 0.00 | 75 | 1006.7 |
| 20260504050702 | 53 | 299 | 0.0 | 1.0 | 0.00 | 0.11 | 0.00 | 76 | 1007.1 |
| 20260504050602 | 53 | 300 | 0.0 | 1.0 | 0.00 | 0.11 | 0.00 | 76 | 1007.2 |
| 20260504050502 | 53 | 299 | 0.0 | 1.0 | 0.00 | 0.11 | 0.00 | 76 | 1007.1 |
| 20260504050402 | 53 | 299 | 0.0 | 1.0 | 0.00 | 0.11 | 0.00 | 76 | 1007.2 |
| 20260504050302 | 53 | 299 | 0.0 | 2.0 | 0.00 | 0.11 | 0.00 | 76 | 1007.1 |
| 20260504050202 | 53 | 300 | 0.0 | 2.0 | 0.00 | 0.11 | 0.00 | 76 | 1007.1 |
| 20260504050002 | 54 | 300 | 0.0 | 2.0 | 0.00 | 0.11 | 0.11 | 75 | 1007.2 |
| 20260504045901 | 54 | 300 | 0.0 | 2.0 | 0.00 | 0.11 | 0.11 | 75 | 1007.1 |
| 20260504045802 | 54 | 299 | 0.0 | 2.0 | 0.00 | 0.11 | 0.11 | 75 | 1007.1 |
| 20260504045701 | 54 | 299 | 0.0 | 2.0 | 0.00 | 0.11 | 0.11 | 75 | 1007.1 |
| 20260504045602 | 54 | 299 | 0.0 | 2.0 | 0.00 | 0.11 | 0.11 | 75 | 1007.2 |
| 20260504045501 | 54 | 300 | 1.0 | 2.0 | 0.00 | 0.11 | 0.11 | 75 | 1007.1 |
| 20260504045402 | 54 | 310 | 0.0 | 2.0 | 0.00 | 0.11 | 0.11 | 75 | 1007.1 |
| 20260504045301 | 54 | 309 | 0.0 | 2.0 | 0.00 | 0.11 | 0.11 | 75 | 1007.1 |
| 20260504045201 | 54 | 309 | 0.0 | 2.0 | 0.00 | 0.11 | 0.11 | 75 | 1007.1 |
| 20260504045002 | 54 | 308 | 0.0 | 3.0 | 0.00 | 0.11 | 0.11 | 75 | 1007.1 |
| 20260504044901 | 54 | 308 | 1.0 | 3.0 | 0.00 | 0.11 | 0.11 | 75 | 1007.2 |
| 20260504044801 | 54 | 309 | 0.0 | 3.0 | 0.00 | 0.11 | 0.11 | 75 | 1007.1 |
| 20260504044701 | 54 | 309 | 0.0 | 3.0 | 0.00 | 0.11 | 0.11 | 75 | 1007.2 |
| 20260504044601 | 54 | 309 | 0.0 | 3.0 | 0.00 | 0.11 | 0.11 | 75 | 1007.2 |
| 20260504044501 | 54 | 253 | 1.0 | 3.0 | 0.00 | 0.11 | 0.11 | 75 | 1007.1 |
| 20260504044401 | 54 | 316 | 0.0 | 3.0 | 0.00 | 0.11 | 0.11 | 75 | 1007.1 |
| 20260504044301 | 54 | 344 | 3.0 | 3.0 | 0.00 | 0.11 | 0.11 | 75 | 1007.1 |
| 20260504044201 | 54 | 319 | 0.0 | 3.0 | 0.00 | 0.11 | 0.11 | 75 | 1007.0 |
| 20260504044102 | 54 | 359 | 1.0 | 3.0 | 0.00 | 0.11 | 0.11 | 75 | 1007.1 |
| 20260504044001 | 54 | 312 | 0.0 | 3.0 | 0.00 | 0.11 | 0.11 | 75 | 1007.1 |
| 20260504043901 | 54 | 310 | 0.0 | 3.0 | 0.00 | 0.11 | 0.11 | 75 | 1007.0 |
| 20260504043802 | 54 | 311 | 0.0 | 3.0 | 0.00 | 0.11 | 0.11 | 75 | 1007.0 |
| 20260504043701 | 54 | 300 | 0.0 | 3.0 | 0.00 | 0.11 | 0.11 | 75 | 1007.1 |
| 20260504043602 | 54 | 299 | 0.0 | 3.0 | 0.00 | 0.11 | 0.11 | 75 | 1007.0 |
| 20260504043501 | 54 | 358 | 1.0 | 2.0 | 0.00 | 0.11 | 0.11 | 75 | 1007.1 |
| 20260504043401 | 54 | 17 | 2.0 | 2.0 | 0.00 | 0.11 | 0.11 | 75 | 1007.1 |
| 20260504043302 | 54 | 339 | 0.0 | 1.0 | 0.00 | 0.11 | 0.11 | 75 | 1007.0 |
| 20260504043201 | 54 | 339 | 0.0 | 1.0 | 0.00 | 0.11 | 0.11 | 75 | 1007.0 |
| 20260504043101 | 54 | 339 | 0.0 | 1.0 | 0.00 | 0.11 | 0.11 | 75 | 1007.0 |
| 20260504043002 | 54 | 330 | 1.0 | 1.0 | 0.00 | 0.11 | 0.11 | 75 | 1007.0 |
| 20260504042903 | 54 | 283 | 1.0 | 1.0 | 0.00 | 0.11 | 0.11 | 75 | 1007.0 |
| 20260504042802 | 54 | 274 | 0.0 | 1.0 | 0.00 | 0.11 | 0.11 | 75 | 1007.0 |
| 20260504042601 | 54 | 248 | 0.0 | 1.0 | 0.00 | 0.11 | 0.11 | 75 | 1007.0 |
| 20260504042501 | 54 | 231 | 0.0 | 2.0 | 0.00 | 0.11 | 0.11 | 75 | 1007.0 |
| 20260504042401 | 54 | 231 | 0.0 | 2.0 | 0.00 | 0.11 | 0.11 | 75 | 1007.0 |
| 20260504042301 | 54 | 231 | 0.0 | 2.0 | 0.00 | 0.11 | 0.11 | 75 | 1007.0 |
| 20260504042201 | 54 | 231 | 0.0 | 2.0 | 0.00 | 0.11 | 0.11 | 75 | 1007.0 |
| 20260504042102 | 54 | 231 | 0.0 | 2.0 | 0.00 | 0.11 | 0.11 | 75 | 1007.0 |
| 20260504042001 | 54 | 231 | 0.0 | 2.0 | 0.00 | 0.11 | 0.11 | 76 | 1007.0 |
| 20260504041902 | 54 | 231 | 0.0 | 2.0 | 0.00 | 0.11 | 0.11 | 76 | 1006.9 |
| 20260504041501 | 53 | 29 | 0.0 | 2.0 | 0.00 | 0.11 | 0.11 | 76 | 1006.9 |
| 20260504041401 | 53 | 105 | 0.0 | 2.0 | 0.00 | 0.11 | 0.11 | 77 | 1006.9 |
| 20260504041304 | 53 | 105 | 0.0 | 2.0 | 0.00 | 0.11 | 0.11 | 77 | 1006.9 |
| 20260504041001 | 52 | 56 | 0.0 | 2.0 | 0.00 | 0.11 | 0.11 | 78 | 1006.9 |
| 20260504040501 | 52 | 34 | 0.0 | 0.0 | 0.00 | 0.11 | 0.11 | 78 | 1006.9 |
| 20260504040401 | 52 | 34 | 0.0 | 0.0 | 0.00 | 0.11 | 0.11 | 78 | 1006.9 |
| 20260504040301 | 52 | 33 | 0.0 | 0.0 | 0.00 | 0.11 | 0.11 | 78 | 1006.8 |
| 20260504040201 | 52 | 33 | 0.0 | 0.0 | 0.00 | 0.11 | 0.11 | 78 | 1006.8 |
| 20260504040000 | 51 | 34 | 0.0 | 0.0 | 0.00 | 0.11 | 0.11 | 78 | 1006.9 |
| 20260504035901 | 51 | 34 | 0.0 | 0.0 | 0.00 | 0.11 | 0.11 | 78 | 1006.8 |
| 20260504035801 | 51 | 34 | 0.0 | 0.0 | 0.00 | 0.11 | 0.11 | 78 | 1006.9 |
| 20260504035701 | 51 | 33 | 0.0 | 0.0 | 0.00 | 0.11 | 0.11 | 78 | 1006.9 |
| 20260504035502 | 51 | 33 | 0.0 | 0.0 | 0.00 | 0.11 | 0.11 | 78 | 1006.9 |
| 20260504035401 | 51 | 34 | 0.0 | 0.0 | 0.00 | 0.11 | 0.11 | 78 | 1006.9 |
| 20260504035202 | 51 | 33 | 0.0 | 0.0 | 0.00 | 0.11 | 0.11 | 78 | 1006.9 |
| 20260504035101 | 51 | 34 | 0.0 | 0.0 | 0.00 | 0.11 | 0.11 | 78 | 1006.9 |
| 20260504035001 | 51 | 34 | 0.0 | 0.0 | 0.00 | 0.11 | 0.11 | 78 | 1006.9 |
| 20260504034901 | 51 | 33 | 0.0 | 0.0 | 0.00 | 0.11 | 0.11 | 78 | 1007.0 |
| 20260504034701 | 51 | 34 | 0.0 | 0.0 | 0.00 | 0.11 | 0.11 | 78 | 1007.0 |
| 20260504034601 | 51 | 33 | 0.0 | 0.0 | 0.00 | 0.11 | 0.11 | 78 | 1007.0 |
| 20260504034501 | 51 | 33 | 0.0 | 0.0 | 0.00 | 0.11 | 0.11 | 78 | 1006.9 |
| 20260504034401 | 51 | 33 | 0.0 | 0.0 | 0.00 | 0.11 | 0.11 | 78 | 1007.0 |
| 20260504034301 | 51 | 34 | 0.0 | 0.0 | 0.00 | 0.11 | 0.11 | 78 | 1007.0 |
| 20260504034201 | 51 | 34 | 0.0 | 0.0 | 0.00 | 0.11 | 0.11 | 78 | 1007.0 |
| 20260504034101 | 51 | 34 | 0.0 | 0.0 | 0.00 | 0.11 | 0.11 | 77 | 1007.0 |
| 20260504034003 | 51 | 34 | 0.0 | 0.0 | 0.00 | 0.11 | 0.11 | 77 | 1006.9 |
| 20260504033901 | 51 | 34 | 0.0 | 0.0 | 0.00 | 0.11 | 0.11 | 77 | 1007.0 |
| 20260504033801 | 51 | 34 | 0.0 | 0.0 | 0.00 | 0.11 | 0.11 | 77 | 1007.0 |
| 20260504033701 | 51 | 34 | 0.0 | 0.0 | 0.00 | 0.11 | 0.11 | 77 | 1007.0 |
| 20260504033601 | 51 | 34 | 0.0 | 0.0 | 0.00 | 0.11 | 0.11 | 77 | 1007.1 |
| 20260504033401 | 52 | 33 | 0.0 | 0.0 | 0.00 | 0.11 | 0.11 | 76 | 1007.1 |
| 20260504033301 | 52 | 33 | 0.0 | 0.0 | 0.00 | 0.11 | 0.11 | 77 | 1007.0 |
| 20260504033200 | 52 | 34 | 0.0 | 0.0 | 0.00 | 0.11 | 0.11 | 77 | 1007.1 |
| 20260504033101 | 52 | 34 | 0.0 | 0.0 | 0.00 | 0.11 | 0.11 | 77 | 1007.2 |
| 20260504033002 | 52 | 34 | 0.0 | 0.0 | 0.00 | 0.11 | 0.11 | 76 | 1007.2 |
| 20260504032801 | 52 | 34 | 0.0 | 0.0 | 0.00 | 0.11 | 0.11 | 76 | 1007.2 |
| 20260504032701 | 52 | 34 | 0.0 | 0.0 | 0.00 | 0.11 | 0.11 | 75 | 1007.1 |
| 20260504032601 | 52 | 34 | 0.0 | 0.0 | 0.00 | 0.11 | 0.11 | 75 | 1007.1 |
| 20260504032501 | 52 | 34 | 0.0 | 0.0 | 0.00 | 0.11 | 0.11 | 75 | 1007.2 |
| 20260504032401 | 52 | 34 | 0.0 | 0.0 | 0.00 | 0.11 | 0.11 | 75 | 1007.2 |
| 20260504032303 | 53 | 34 | 0.0 | 0.0 | 0.00 | 0.11 | 0.11 | 75 | 1007.3 |
| 20260504032201 | 53 | 34 | 0.0 | 0.0 | 0.00 | 0.11 | 0.11 | 75 | 1007.2 |
| 20260504032102 | 53 | 34 | 0.0 | 0.0 | 0.00 | 0.11 | 0.11 | 74 | 1007.2 |
| 20260504032001 | 53 | 34 | 0.0 | 0.0 | 0.00 | 0.11 | 0.11 | 74 | 1007.3 |
| 20260504031903 | 53 | 34 | 0.0 | 0.0 | 0.00 | 0.11 | 0.11 | 74 | 1007.3 |
| 20260504031803 | 53 | 34 | 0.0 | 0.0 | 0.00 | 0.11 | 0.11 | 74 | 1007.2 |
| 20260504031701 | 53 | 34 | 0.0 | 0.0 | 0.00 | 0.11 | 0.11 | 74 | 1007.3 |
| 20260504031601 | 53 | 34 | 0.0 | 0.0 | 0.00 | 0.11 | 0.11 | 73 | 1007.3 |
| 20260504031502 | 53 | 34 | 0.0 | 0.0 | 0.00 | 0.11 | 0.11 | 73 | 1007.3 |
| 20260504031402 | 53 | 33 | 0.0 | 0.0 | 0.00 | 0.11 | 0.11 | 73 | 1007.3 |
| 20260504031302 | 53 | 34 | 0.0 | 0.0 | 0.00 | 0.11 | 0.11 | 73 | 1007.3 |
| 20260504031102 | 54 | 34 | 0.0 | 0.0 | 0.00 | 0.11 | 0.11 | 71 | 1007.3 |
| 20260504031001 | 54 | 34 | 0.0 | 0.0 | 0.00 | 0.11 | 0.11 | 71 | 1007.2 |
| 20260504030901 | 54 | 34 | 0.0 | 0.0 | 0.00 | 0.11 | 0.11 | 70 | 1007.3 |
| 20260504030801 | 54 | 34 | 0.0 | 0.0 | 0.00 | 0.11 | 0.11 | 70 | 1007.3 |
| 20260504030701 | 55 | 34 | 0.0 | 0.0 | 0.00 | 0.11 | 0.11 | 70 | 1007.3 |
| 20260504030501 | 55 | 34 | 0.0 | 0.0 | 0.00 | 0.11 | 0.11 | 69 | 1007.3 |
| 20260504030401 | 55 | 33 | 0.0 | 0.0 | 0.00 | 0.11 | 0.11 | 68 | 1007.2 |
| 20260504030301 | 55 | 34 | 0.0 | 0.0 | 0.00 | 0.11 | 0.11 | 68 | 1007.2 |
| 20260504030202 | 56 | 34 | 0.0 | 1.0 | 0.00 | 0.11 | 0.11 | 68 | 1007.3 |
| 20260504025901 | 56 | 34 | 0.0 | 1.0 | 0.00 | 0.11 | 0.11 | 68 | 1007.3 |
| 20260504025801 | 56 | 34 | 0.0 | 1.0 | 0.00 | 0.11 | 0.11 | 68 | 1007.3 |
| 20260504025701 | 56 | 34 | 0.0 | 1.0 | 0.00 | 0.11 | 0.11 | 68 | 1007.3 |
| 20260504025503 | 56 | 34 | 0.0 | 1.0 | 0.00 | 0.11 | 0.11 | 67 | 1007.4 |
| 20260504025401 | 56 | 34 | 0.0 | 1.0 | 0.00 | 0.11 | 0.11 | 67 | 1007.3 |
| 20260504025304 | 57 | 33 | 0.0 | 1.0 | 0.00 | 0.11 | 0.11 | 67 | 1007.3 |
| 20260504025201 | 57 | 34 | 0.0 | 0.0 | 0.00 | 0.11 | 0.11 | 66 | 1007.3 |
| 20260504025101 | 57 | 34 | 0.0 | 0.0 | 0.00 | 0.11 | 0.11 | 66 | 1007.3 |
| 20260504024803 | 57 | 34 | 0.0 | 1.0 | 0.00 | 0.11 | 0.11 | 66 | 1007.3 |
| 20260504024502 | 57 | 34 | 0.0 | 1.0 | 0.00 | 0.11 | 0.11 | 66 | 1007.3 |
| 20260504024401 | 57 | 34 | 0.0 | 1.0 | 0.00 | 0.11 | 0.11 | 66 | 1007.3 |
| 20260504024301 | 57 | 34 | 0.0 | 1.0 | 0.00 | 0.11 | 0.11 | 65 | 1007.3 |
| 20260504024201 | 57 | 30 | 0.0 | 1.0 | 0.00 | 0.11 | 0.11 | 65 | 1007.3 |
| 20260504024101 | 58 | 30 | 0.0 | 1.0 | 0.00 | 0.11 | 0.11 | 65 | 1007.2 |
| 20260504023902 | 58 | 30 | 0.0 | 2.0 | 0.00 | 0.11 | 0.11 | 65 | 1007.3 |
| 20260504023601 | 58 | 28 | 0.0 | 2.0 | 0.00 | 0.11 | 0.11 | 65 | 1007.3 |
| 20260504023501 | 58 | 29 | 0.0 | 2.0 | 0.00 | 0.11 | 0.11 | 65 | 1007.3 |
| 20260504023402 | 58 | 313 | 0.0 | 2.0 | 0.00 | 0.11 | 0.11 | 64 | 1007.3 |
| 20260504023301 | 58 | 313 | 0.0 | 2.0 | 0.00 | 0.11 | 0.11 | 65 | 1007.3 |
| 20260504023201 | 58 | 51 | 1.0 | 2.0 | 0.00 | 0.11 | 0.11 | 65 | 1007.2 |
| 20260504023101 | 58 | 51 | 0.0 | 2.0 | 0.00 | 0.11 | 0.11 | 64 | 1007.2 |
| 20260504023001 | 58 | 51 | 0.0 | 2.0 | 0.00 | 0.11 | 0.11 | 64 | 1007.3 |
| 20260504022801 | 58 | 50 | 0.0 | 2.0 | 0.00 | 0.11 | 0.11 | 64 | 1007.2 |
| 20260504022601 | 58 | 73 | 1.0 | 2.0 | 0.00 | 0.11 | 0.11 | 64 | 1007.3 |
| 20260504022501 | 58 | 77 | 0.0 | 2.0 | 0.00 | 0.11 | 0.11 | 64 | 1007.3 |
| 20260504022403 | 58 | 77 | 0.0 | 2.0 | 0.00 | 0.11 | 0.11 | 64 | 1007.3 |
| 20260504022304 | 58 | 62 | 2.0 | 2.0 | 0.00 | 0.11 | 0.11 | 64 | 1007.3 |
| 20260504022101 | 58 | 327 | 0.0 | 2.0 | 0.00 | 0.11 | 0.11 | 64 | 1007.3 |
| 20260504022001 | 58 | 318 | 0.0 | 2.0 | 0.00 | 0.11 | 0.11 | 64 | 1007.3 |
| 20260504021901 | 58 | 318 | 0.0 | 2.0 | 0.00 | 0.11 | 0.11 | 64 | 1007.3 |
| 20260504021801 | 58 | 51 | 0.0 | 2.0 | 0.00 | 0.11 | 0.11 | 64 | 1007.2 |
| 20260504021701 | 58 | 96 | 0.0 | 2.0 | 0.00 | 0.11 | 0.11 | 64 | 1007.2 |
| 20260504021601 | 58 | 96 | 0.0 | 2.0 | 0.00 | 0.11 | 0.11 | 64 | 1007.3 |
| 20260504021402 | 58 | 50 | 1.0 | 2.0 | 0.00 | 0.11 | 0.11 | 64 | 1007.1 |
| 20260504021301 | 58 | 50 | 0.0 | 2.0 | 0.00 | 0.11 | 0.11 | 64 | 1007.2 |
| 20260504021201 | 58 | 50 | 0.0 | 2.0 | 0.00 | 0.11 | 0.11 | 64 | 1007.1 |
| 20260504021102 | 58 | 50 | 0.0 | 2.0 | 0.00 | 0.11 | 0.11 | 64 | 1007.1 |
| 20260504021002 | 58 | 16 | 0.0 | 2.0 | 0.00 | 0.11 | 0.11 | 64 | 1007.1 |
| 20260504020901 | 58 | 16 | 1.0 | 2.0 | 0.00 | 0.11 | 0.11 | 64 | 1007.1 |
| 20260504020803 | 58 | 315 | 0.0 | 2.0 | 0.00 | 0.11 | 0.11 | 64 | 1007.1 |
| 20260504020701 | 58 | 314 | 0.0 | 2.0 | 0.00 | 0.11 | 0.11 | 65 | 1007.1 |
| 20260504020603 | 58 | 199 | 1.0 | 2.0 | 0.00 | 0.11 | 0.11 | 65 | 1007.1 |
| 20260504020503 | 58 | 311 | 0.0 | 2.0 | 0.00 | 0.11 | 0.11 | 65 | 1007.1 |
| 20260504020400 | 58 | 253 | 0.0 | 2.0 | 0.00 | 0.11 | 0.11 | 65 | 1007.0 |
| 20260504020301 | 58 | 248 | 1.0 | 2.0 | 0.00 | 0.11 | 0.11 | 65 | 1007.1 |
| 20260504020202 | 58 | 324 | 1.0 | 1.0 | 0.00 | 0.11 | 0.11 | 65 | 1007.0 |
| 20260504020004 | 58 | 28 | 0.0 | 1.0 | 0.00 | 0.11 | 0.11 | 65 | 1007.0 |
| 20260504015901 | 58 | 28 | 1.0 | 1.0 | 0.00 | 0.11 | 0.11 | 65 | 1007.0 |
| 20260504015803 | 58 | 28 | 0.0 | 1.0 | 0.00 | 0.11 | 0.11 | 65 | 1007.0 |
| 20260504015701 | 58 | 28 | 0.0 | 1.0 | 0.00 | 0.11 | 0.11 | 65 | 1006.9 |
| 20260504015501 | 58 | 28 | 0.0 | 3.0 | 0.00 | 0.11 | 0.11 | 65 | 1007.0 |
| 20260504015401 | 58 | 29 | 0.0 | 3.0 | 0.00 | 0.11 | 0.11 | 65 | 1006.9 |
| 20260504015301 | 58 | 26 | 0.0 | 3.0 | 0.00 | 0.11 | 0.11 | 65 | 1006.9 |
| 20260504015201 | 58 | 26 | 0.0 | 3.0 | 0.00 | 0.11 | 0.11 | 65 | 1006.9 |
| 20260504015102 | 58 | 26 | 0.0 | 3.0 | 0.00 | 0.11 | 0.11 | 65 | 1006.9 |
| 20260504015001 | 58 | 30 | 0.0 | 3.0 | 0.00 | 0.11 | 0.11 | 65 | 1006.9 |
| 20260504014903 | 58 | 32 | 0.0 | 3.0 | 0.00 | 0.11 | 0.11 | 65 | 1006.9 |
| 20260504014801 | 58 | 32 | 0.0 | 3.0 | 0.00 | 0.11 | 0.11 | 65 | 1006.9 |
| 20260504014701 | 58 | 356 | 1.0 | 2.0 | 0.00 | 0.11 | 0.11 | 66 | 1007.0 |
| 20260504014602 | 58 | 326 | 2.0 | 2.0 | 0.00 | 0.11 | 0.11 | 65 | 1006.9 |
| 20260504014502 | 58 | 299 | 0.0 | 4.0 | 0.00 | 0.11 | 0.11 | 65 | 1006.9 |
| 20260504014401 | 58 | 356 | 0.0 | 4.0 | 0.00 | 0.11 | 0.11 | 65 | 1006.9 |
| 20260504014301 | 58 | 357 | 0.0 | 4.0 | 0.00 | 0.11 | 0.11 | 65 | 1007.0 |
| 20260504014201 | 58 | 357 | 0.0 | 4.0 | 0.00 | 0.11 | 0.11 | 65 | 1006.9 |
| 20260504014000 | 58 | 285 | 0.0 | 4.0 | 0.00 | 0.11 | 0.11 | 64 | 1006.9 |
| 20260504013901 | 58 | 285 | 0.0 | 4.0 | 0.00 | 0.11 | 0.11 | 64 | 1006.9 |
| 20260504013802 | 58 | 285 | 0.0 | 4.0 | 0.00 | 0.11 | 0.11 | 64 | 1006.9 |
| 20260504013700 | 58 | 285 | 0.0 | 4.0 | 0.00 | 0.11 | 0.11 | 64 | 1006.9 |
| 20260504013601 | 58 | 276 | 0.0 | 1.0 | 0.00 | 0.11 | 0.11 | 64 | 1007.0 |
| 20260504013502 | 59 | 20 | 0.0 | 1.0 | 0.00 | 0.11 | 0.11 | 64 | 1006.9 |
| 20260504013401 | 59 | 20 | 0.0 | 1.0 | 0.00 | 0.11 | 0.11 | 64 | 1006.9 |
| 20260504013301 | 59 | 20 | 0.0 | 1.0 | 0.00 | 0.11 | 0.11 | 64 | 1006.9 |
| 20260504013200 | 59 | 1 | 0.0 | 1.0 | 0.00 | 0.11 | 0.11 | 64 | 1006.9 |
| 20260504012901 | 59 | 1 | 0.0 | 1.0 | 0.00 | 0.11 | 0.11 | 63 | 1006.9 |
| 20260504012801 | 59 | 340 | 0.0 | 1.0 | 0.00 | 0.11 | 0.11 | 63 | 1006.9 |
| 20260504012702 | 59 | 340 | 0.0 | 1.0 | 0.00 | 0.11 | 0.11 | 63 | 1006.8 |
| 20260504012501 | 59 | 340 | 0.0 | 1.0 | 0.00 | 0.11 | 0.11 | 63 | 1006.8 |
| 20260504012400 | 59 | 340 | 0.0 | 1.0 | 0.00 | 0.11 | 0.11 | 63 | 1006.8 |
| 20260504012202 | 59 | 340 | 0.0 | 1.0 | 0.00 | 0.11 | 0.11 | 63 | 1006.8 |
| 20260504012103 | 59 | 340 | 0.0 | 1.0 | 0.00 | 0.11 | 0.11 | 63 | 1006.8 |
| 20260504012001 | 59 | 335 | 0.0 | 1.0 | 0.00 | 0.11 | 0.11 | 63 | 1006.8 |
| 20260504011901 | 59 | 326 | 0.0 | 1.0 | 0.00 | 0.11 | 0.11 | 63 | 1006.8 |
| 20260504011701 | 60 | 37 | 0.0 | 1.0 | 0.00 | 0.11 | 0.11 | 63 | 1006.8 |
| 20260504011601 | 60 | 37 | 0.0 | 1.0 | 0.00 | 0.11 | 0.11 | 63 | 1006.8 |
| 20260504011501 | 60 | 38 | 0.0 | 0.0 | 0.00 | 0.11 | 0.11 | 63 | 1006.9 |
| 20260504011401 | 60 | 38 | 0.0 | 0.0 | 0.00 | 0.11 | 0.11 | 62 | 1006.8 |
| 20260504011202 | 60 | 38 | 0.0 | 0.0 | 0.00 | 0.11 | 0.11 | 62 | 1006.8 |
| 20260504011101 | 60 | 56 | 0.0 | 0.0 | 0.00 | 0.11 | 0.11 | 62 | 1006.9 |
| 20260504011002 | 60 | 56 | 0.0 | 1.0 | 0.00 | 0.11 | 0.11 | 62 | 1006.8 |
| 20260504010901 | 60 | 56 | 0.0 | 1.0 | 0.00 | 0.11 | 0.11 | 61 | 1006.8 |
| 20260504010801 | 60 | 56 | 0.0 | 1.0 | 0.00 | 0.11 | 0.11 | 61 | 1006.9 |
| 20260504010701 | 60 | 56 | 0.0 | 1.0 | 0.00 | 0.11 | 0.11 | 61 | 1006.8 |
| 20260504010601 | 61 | 56 | 0.0 | 1.0 | 0.00 | 0.11 | 0.11 | 61 | 1006.8 |
| 20260504010502 | 61 | 56 | 0.0 | 1.0 | 0.00 | 0.11 | 0.11 | 61 | 1006.8 |
| 20260504010401 | 61 | 46 | 0.0 | 1.0 | 0.00 | 0.11 | 0.11 | 61 | 1006.8 |
| 20260504010301 | 61 | 46 | 0.0 | 1.0 | 0.00 | 0.11 | 0.11 | 60 | 1006.8 |
| 20260504010201 | 61 | 46 | 0.0 | 1.0 | 0.00 | 0.11 | 0.11 | 60 | 1006.8 |
| 20260504010101 | 61 | 46 | 0.0 | 1.0 | 0.00 | 0.11 | 0.11 | 60 | 1006.8 |
| 20260504010001 | 61 | 291 | 1.0 | 1.0 | 0.00 | 0.11 | 0.11 | 60 | 1006.8 |
| 20260504005902 | 61 | 290 | 0.0 | 1.0 | 0.00 | 0.11 | 0.11 | 60 | 1006.7 |
| 20260504005802 | 61 | 279 | 0.0 | 1.0 | 0.00 | 0.11 | 0.11 | 60 | 1006.8 |
| 20260504005701 | 61 | 311 | 0.0 | 1.0 | 0.00 | 0.11 | 0.11 | 60 | 1006.7 |
| 20260504005601 | 61 | 311 | 0.0 | 1.0 | 0.00 | 0.11 | 0.11 | 60 | 1006.7 |
| 20260504005503 | 61 | 335 | 0.0 | 3.0 | 0.00 | 0.11 | 0.11 | 59 | 1006.7 |
| 20260504005301 | 62 | 70 | 1.0 | 3.0 | 0.00 | 0.11 | 0.11 | 59 | 1006.7 |
| 20260504005202 | 62 | 70 | 0.0 | 3.0 | 0.00 | 0.11 | 0.11 | 59 | 1006.8 |
| 20260504005002 | 62 | 71 | 0.0 | 3.0 | 0.00 | 0.11 | 0.11 | 59 | 1006.8 |
| 20260504004901 | 62 | 356 | 0.0 | 3.0 | 0.00 | 0.11 | 0.11 | 58 | 1006.8 |
| 20260504004802 | 62 | 268 | 0.0 | 3.0 | 0.00 | 0.11 | 0.11 | 58 | 1006.8 |
| 20260504004702 | 62 | 268 | 0.0 | 3.0 | 0.00 | 0.11 | 0.11 | 58 | 1006.8 |
| 20260504004602 | 62 | 257 | 3.0 | 3.0 | 0.00 | 0.11 | 0.11 | 58 | 1006.8 |
| 20260504004303 | 62 | 350 | 1.0 | 2.0 | 0.00 | 0.11 | 0.11 | 58 | 1006.7 |
| 20260504004201 | 62 | 44 | 1.0 | 2.0 | 0.00 | 0.11 | 0.11 | 57 | 1006.7 |
| 20260504004101 | 63 | 27 | 0.0 | 2.0 | 0.00 | 0.11 | 0.11 | 57 | 1006.7 |
| 20260504004001 | 63 | 89 | 0.0 | 2.0 | 0.00 | 0.11 | 0.11 | 57 | 1006.7 |
| 20260504003902 | 63 | 89 | 0.0 | 2.0 | 0.00 | 0.11 | 0.11 | 57 | 1006.7 |
| 20260504003801 | 63 | 310 | 0.0 | 2.0 | 0.00 | 0.11 | 0.11 | 57 | 1006.7 |
| 20260504003701 | 63 | 51 | 0.0 | 3.0 | 0.00 | 0.11 | 0.11 | 56 | 1006.8 |
| 20260504003601 | 63 | 52 | 0.0 | 3.0 | 0.00 | 0.11 | 0.11 | 56 | 1006.8 |
| 20260504003501 | 63 | 69 | 0.0 | 3.0 | 0.00 | 0.11 | 0.11 | 56 | 1006.8 |
| 20260504003401 | 63 | 68 | 1.0 | 3.0 | 0.00 | 0.11 | 0.11 | 56 | 1006.7 |
| 20260504003302 | 63 | 134 | 1.0 | 3.0 | 0.00 | 0.11 | 0.11 | 56 | 1006.7 |
| 20260504003201 | 63 | 313 | 0.0 | 3.0 | 0.00 | 0.11 | 0.11 | 56 | 1006.7 |
| 20260504003101 | 63 | 312 | 0.0 | 3.0 | 0.00 | 0.11 | 0.11 | 55 | 1006.7 |
| 20260504002902 | 63 | 314 | 1.0 | 3.0 | 0.00 | 0.11 | 0.11 | 55 | 1006.7 |
| 20260504002801 | 64 | 354 | 0.0 | 2.0 | 0.00 | 0.11 | 0.11 | 55 | 1006.7 |
| 20260504002701 | 64 | 279 | 1.0 | 2.0 | 0.00 | 0.11 | 0.11 | 55 | 1006.7 |
| 20260504002602 | 64 | 41 | 1.0 | 1.0 | 0.00 | 0.11 | 0.11 | 55 | 1006.6 |
| 20260504002502 | 64 | 46 | 0.0 | 1.0 | 0.00 | 0.11 | 0.11 | 55 | 1006.7 |
| 20260504002402 | 64 | 46 | 0.0 | 1.0 | 0.00 | 0.11 | 0.11 | 55 | 1006.6 |
| 20260504002304 | 64 | 46 | 0.0 | 1.0 | 0.00 | 0.11 | 0.11 | 54 | 1006.7 |
| 20260504002201 | 64 | 46 | 0.0 | 1.0 | 0.00 | 0.11 | 0.11 | 54 | 1006.7 |
| 20260504002101 | 64 | 46 | 0.0 | 1.0 | 0.00 | 0.11 | 0.11 | 53 | 1006.6 |
| 20260504002001 | 64 | 82 | 0.0 | 2.0 | 0.00 | 0.11 | 0.11 | 54 | 1006.6 |
| 20260504001901 | 65 | 82 | 0.0 | 2.0 | 0.00 | 0.11 | 0.11 | 54 | 1006.7 |
| 20260504001800 | 65 | 82 | 0.0 | 2.0 | 0.00 | 0.11 | 0.11 | 53 | 1006.7 |
| 20260504001705 | 65 | 82 | 0.0 | 2.0 | 0.00 | 0.11 | 0.11 | 53 | 1006.7 |
| 20260504001602 | 65 | 330 | 0.0 | 2.0 | 0.00 | 0.11 | 0.11 | 53 | 1006.7 |
| 20260504001502 | 65 | 329 | 0.0 | 2.0 | 0.00 | 0.11 | 0.11 | 53 | 1006.6 |
| 20260504001402 | 65 | 324 | 0.0 | 2.0 | 0.00 | 0.11 | 0.11 | 53 | 1006.7 |
| 20260504001301 | 65 | 324 | 0.0 | 3.0 | 0.00 | 0.11 | 0.11 | 53 | 1006.7 |
| 20260504001202 | 65 | 324 | 1.0 | 3.0 | 0.00 | 0.11 | 0.11 | 52 | 1006.7 |
| 20260504001101 | 65 | 332 | 0.0 | 3.0 | 0.00 | 0.11 | 0.11 | 53 | 1006.7 |
| 20260504001002 | 66 | 16 | 0.0 | 3.0 | 0.00 | 0.11 | 0.11 | 52 | 1006.7 |
| 20260504000901 | 66 | 307 | 0.0 | 4.0 | 0.00 | 0.11 | 0.11 | 51 | 1006.8 |
| 20260504000802 | 66 | 306 | 0.0 | 4.0 | 0.00 | 0.11 | 0.11 | 51 | 1006.8 |
| 20260504000702 | 66 | 314 | 0.0 | 4.0 | 0.00 | 0.11 | 0.11 | 51 | 1006.8 |
| 20260504000601 | 66 | 290 | 1.0 | 4.0 | 0.00 | 0.11 | 0.11 | 52 | 1006.8 |
| 20260504000501 | 66 | 310 | 1.0 | 4.0 | 0.00 | 0.11 | 0.11 | 50 | 1006.8 |
| 20260504000401 | 66 | 308 | 0.0 | 4.0 | 0.00 | 0.11 | 0.11 | 51 | 1006.7 |
| 20260504000301 | 66 | 68 | 1.0 | 4.0 | 0.00 | 0.11 | 0.11 | 51 | 1006.7 |
| 20260504000201 | 66 | 358 | 1.0 | 4.0 | 0.00 | 0.11 | 0.11 | 50 | 1006.7 |
| 20260504000101 | 66 | 358 | 1.0 | 5.0 | 0.00 | 0.11 | 0.11 | 50 | 1006.7 |
| 20260503235903 | 66 | 323 | 2.0 | 7.0 | 0.00 | 0.11 | 0.11 | 50 | 1006.7 |
| 20260503235801 | 66 | 328 | 1.0 | 7.0 | 0.00 | 0.11 | 0.11 | 50 | 1006.7 |
| 20260503235700 | 67 | 305 | 1.0 | 7.0 | 0.00 | 0.11 | 0.11 | 50 | 1006.6 |
| 20260503235501 | 67 | 303 | 1.0 | 7.0 | 0.00 | 0.11 | 0.11 | 50 | 1006.6 |
| 20260503235301 | 67 | 306 | 0.0 | 7.0 | 0.00 | 0.11 | 0.11 | 49 | 1006.6 |
| 20260503235201 | 67 | 277 | 3.0 | 7.0 | 0.00 | 0.11 | 0.11 | 49 | 1006.6 |
| 20260503235101 | 67 | 306 | 1.0 | 5.0 | 0.00 | 0.11 | 0.11 | 49 | 1006.6 |
| 20260503234901 | 67 | 311 | 2.0 | 6.0 | 0.00 | 0.11 | 0.11 | 49 | 1006.6 |
| 20260503234801 | 67 | 257 | 2.0 | 6.0 | 0.00 | 0.11 | 0.11 | 49 | 1006.6 |
| 20260503234601 | 67 | 268 | 2.0 | 6.0 | 0.00 | 0.11 | 0.11 | 48 | 1006.6 |
| 20260503234501 | 67 | 307 | 1.0 | 6.0 | 0.00 | 0.11 | 0.11 | 48 | 1006.6 |
| 20260503234301 | 67 | 303 | 3.0 | 6.0 | 0.00 | 0.11 | 0.11 | 48 | 1006.6 |
| 20260503234201 | 67 | 326 | 3.0 | 6.0 | 0.00 | 0.11 | 0.11 | 48 | 1006.7 |
| 20260503234101 | 67 | 35 | 3.0 | 5.0 | 0.00 | 0.11 | 0.11 | 48 | 1006.7 |
| 20260503234001 | 67 | 11 | 0.0 | 5.0 | 0.00 | 0.11 | 0.11 | 48 | 1006.6 |
| 20260503233901 | 68 | 23 | 3.0 | 5.0 | 0.00 | 0.11 | 0.11 | 48 | 1006.7 |
| 20260503233801 | 67 | 302 | 2.0 | 5.0 | 0.00 | 0.11 | 0.11 | 48 | 1006.6 |
| 20260503233701 | 68 | 302 | 2.0 | 4.0 | 0.00 | 0.11 | 0.11 | 49 | 1006.7 |
| 20260503233602 | 68 | 266 | 2.0 | 4.0 | 0.00 | 0.11 | 0.11 | 49 | 1006.7 |
| 20260503233502 | 68 | 267 | 2.0 | 4.0 | 0.00 | 0.11 | 0.11 | 48 | 1006.7 |
| 20260503233401 | 68 | 314 | 1.0 | 3.0 | 0.00 | 0.11 | 0.11 | 49 | 1006.7 |
| 20260503233102 | 68 | 314 | 2.0 | 4.0 | 0.00 | 0.11 | 0.11 | 49 | 1006.8 |
| 20260503233004 | 68 | 327 | 1.0 | 4.0 | 0.00 | 0.11 | 0.11 | 49 | 1006.8 |
| 20260503232901 | 68 | 298 | 0.0 | 4.0 | 0.00 | 0.11 | 0.11 | 48 | 1006.8 |
| 20260503232801 | 68 | 302 | 1.0 | 5.0 | 0.00 | 0.11 | 0.11 | 48 | 1006.7 |
| 20260503232701 | 68 | 354 | 1.0 | 9.0 | 0.00 | 0.11 | 0.11 | 48 | 1006.8 |
| 20260503232602 | 68 | 310 | 0.0 | 9.0 | 0.00 | 0.11 | 0.11 | 47 | 1006.8 |
| 20260503232501 | 68 | 285 | 0.0 | 9.0 | 0.00 | 0.11 | 0.11 | 47 | 1006.8 |
| 20260503232401 | 68 | 298 | 1.0 | 9.0 | 0.00 | 0.11 | 0.11 | 46 | 1006.7 |
| 20260503232305 | 69 | 23 | 4.0 | 9.0 | 0.00 | 0.11 | 0.11 | 46 | 1006.7 |
| 20260503232201 | 69 | 304 | 2.0 | 9.0 | 0.00 | 0.11 | 0.11 | 46 | 1006.7 |
| 20260503232101 | 69 | 274 | 4.0 | 9.0 | 0.00 | 0.11 | 0.11 | 45 | 1006.7 |
| 20260503232003 | 69 | 165 | 2.0 | 9.0 | 0.00 | 0.11 | 0.11 | 45 | 1006.7 |
| 20260503231902 | 69 | 311 | 5.0 | 6.0 | 0.00 | 0.11 | 0.11 | 45 | 1006.7 |
| 20260503231801 | 69 | 342 | 1.0 | 6.0 | 0.00 | 0.11 | 0.11 | 46 | 1006.7 |
| 20260503231702 | 69 | 302 | 2.0 | 6.0 | 0.00 | 0.11 | 0.11 | 46 | 1006.7 |
| 20260503231602 | 69 | 42 | 4.0 | 6.0 | 0.00 | 0.11 | 0.11 | 45 | 1006.7 |
| 20260503231501 | 69 | 297 | 2.0 | 6.0 | 0.00 | 0.11 | 0.11 | 45 | 1006.8 |
| 20260503231401 | 69 | 281 | 1.0 | 6.0 | 0.00 | 0.11 | 0.11 | 45 | 1006.8 |
| 20260503231302 | 69 | 317 | 1.0 | 6.0 | 0.00 | 0.11 | 0.11 | 46 | 1006.7 |
| 20260503231202 | 69 | 1 | 2.0 | 6.0 | 0.00 | 0.11 | 0.11 | 45 | 1006.8 |
| 20260503231101 | 69 | 297 | 2.0 | 6.0 | 0.00 | 0.11 | 0.11 | 45 | 1006.8 |
| 20260503231001 | 69 | 310 | 1.0 | 6.0 | 0.00 | 0.11 | 0.11 | 46 | 1006.9 |
| 20260503230903 | 69 | 307 | 2.0 | 6.0 | 0.00 | 0.11 | 0.11 | 45 | 1006.8 |
| 20260503230602 | 69 | 308 | 1.0 | 6.0 | 0.00 | 0.11 | 0.11 | 46 | 1006.8 |
| 20260503230503 | 69 | 321 | 1.0 | 6.0 | 0.00 | 0.11 | 0.11 | 47 | 1006.8 |
| 20260503230402 | 69 | 307 | 2.0 | 6.0 | 0.00 | 0.11 | 0.11 | 46 | 1006.9 |
| 20260503230301 | 69 | 304 | 3.0 | 6.0 | 0.00 | 0.11 | 0.11 | 46 | 1006.8 |
| 20260503230200 | 69 | 321 | 1.0 | 7.0 | 0.00 | 0.11 | 0.11 | 46 | 1006.8 |
| 20260503230001 | 69 | 313 | 2.0 | 7.0 | 0.00 | 0.11 | 0.11 | 45 | 1006.9 |
| 20260503225901 | 69 | 323 | 4.0 | 7.0 | 0.00 | 0.11 | 0.11 | 45 | 1006.9 |
| 20260503225801 | 69 | 311 | 4.0 | 8.0 | 0.00 | 0.11 | 0.11 | 44 | 1006.9 |
| 20260503225702 | 69 | 192 | 1.0 | 8.0 | 0.00 | 0.11 | 0.11 | 44 | 1006.9 |
| 20260503225601 | 69 | 251 | 3.0 | 8.0 | 0.00 | 0.11 | 0.11 | 44 | 1006.9 |
| 20260503225501 | 69 | 304 | 1.0 | 8.0 | 0.00 | 0.11 | 0.11 | 44 | 1006.9 |
| 20260503225402 | 69 | 308 | 3.0 | 8.0 | 0.00 | 0.11 | 0.11 | 43 | 1006.9 |
| 20260503225304 | 70 | 283 | 3.0 | 8.0 | 0.00 | 0.11 | 0.11 | 43 | 1006.9 |
| 20260503225201 | 70 | 301 | 4.0 | 8.0 | 0.00 | 0.11 | 0.11 | 44 | 1007.0 |
| 20260503225102 | 70 | 328 | 3.0 | 9.0 | 0.00 | 0.11 | 0.11 | 44 | 1007.0 |
| 20260503225001 | 70 | 307 | 3.0 | 9.0 | 0.00 | 0.11 | 0.11 | 43 | 1006.9 |
| 20260503224701 | 70 | 250 | 3.0 | 9.0 | 0.00 | 0.11 | 0.11 | 45 | 1007.0 |
| 20260503224601 | 70 | 37 | 2.0 | 9.0 | 0.00 | 0.11 | 0.11 | 45 | 1007.0 |
| 20260503224302 | 70 | 302 | 3.0 | 9.0 | 0.00 | 0.11 | 0.11 | 44 | 1007.1 |
| 20260503224203 | 70 | 286 | 4.0 | 8.0 | 0.00 | 0.11 | 0.11 | 43 | 1007.0 |
| 20260503224101 | 70 | 291 | 5.0 | 8.0 | 0.00 | 0.11 | 0.11 | 44 | 1007.1 |
| 20260503223801 | 70 | 274 | 3.0 | 8.0 | 0.00 | 0.11 | 0.11 | 43 | 1007.1 |
| 20260503223701 | 70 | 262 | 8.0 | 8.0 | 0.00 | 0.11 | 0.11 | 46 | 1007.2 |
| 20260503223601 | 70 | 279 | 2.0 | 7.0 | 0.00 | 0.11 | 0.11 | 47 | 1007.0 |
| 20260503223500 | 70 | 288 | 2.0 | 7.0 | 0.00 | 0.11 | 0.11 | 45 | 1007.0 |
| 20260503223403 | 70 | 303 | 1.0 | 7.0 | 0.00 | 0.11 | 0.11 | 45 | 1007.2 |
| 20260503223301 | 70 | 301 | 2.0 | 7.0 | 0.00 | 0.11 | 0.11 | 45 | 1007.1 |
| 20260503223202 | 70 | 262 | 4.0 | 7.0 | 0.00 | 0.11 | 0.11 | 45 | 1007.2 |
| 20260503223101 | 70 | 320 | 5.0 | 7.0 | 0.00 | 0.11 | 0.11 | 45 | 1007.2 |
| 20260503223000 | 70 | 334 | 3.0 | 7.0 | 0.00 | 0.11 | 0.11 | 44 | 1007.2 |
| 20260503222901 | 70 | 307 | 7.0 | 7.0 | 0.00 | 0.11 | 0.11 | 45 | 1007.2 |
| 20260503222801 | 70 | 300 | 1.0 | 7.0 | 0.00 | 0.11 | 0.11 | 45 | 1007.2 |
| 20260503222702 | 70 | 302 | 3.0 | 7.0 | 0.00 | 0.11 | 0.11 | 45 | 1007.2 |
| 20260503222602 | 70 | 253 | 2.0 | 7.0 | 0.00 | 0.11 | 0.11 | 45 | 1007.3 |
| 20260503222503 | 70 | 313 | 2.0 | 7.0 | 0.00 | 0.11 | 0.11 | 45 | 1007.2 |
| 20260503222401 | 70 | 257 | 2.0 | 7.0 | 0.00 | 0.11 | 0.11 | 44 | 1007.2 |
| 20260503222304 | 70 | 306 | 3.0 | 7.0 | 0.00 | 0.11 | 0.11 | 46 | 1007.2 |
| 20260503222201 | 70 | 262 | 2.0 | 7.0 | 0.00 | 0.11 | 0.11 | 46 | 1007.2 |
| 20260503222103 | 70 | 324 | 1.0 | 7.0 | 0.00 | 0.11 | 0.11 | 47 | 1007.3 |
| 20260503222004 | 70 | 307 | 2.0 | 7.0 | 0.00 | 0.11 | 0.11 | 47 | 1007.2 |
| 20260503221702 | 70 | 304 | 4.0 | 7.0 | 0.00 | 0.11 | 0.11 | 45 | 1007.2 |
| 20260503221501 | 69 | 45 | 1.0 | 7.0 | 0.00 | 0.11 | 0.11 | 46 | 1007.2 |
| 20260503221401 | 69 | 314 | 3.0 | 9.0 | 0.00 | 0.11 | 0.11 | 46 | 1007.2 |
| 20260503221301 | 69 | 345 | 4.0 | 9.0 | 0.00 | 0.11 | 0.11 | 46 | 1007.2 |
| 20260503221201 | 69 | 311 | 1.0 | 9.0 | 0.00 | 0.11 | 0.11 | 48 | 1007.3 |
| 20260503221001 | 69 | 47 | 5.0 | 9.0 | 0.00 | 0.11 | 0.11 | 48 | 1007.3 |
| 20260503220801 | 69 | 319 | 1.0 | 9.0 | 0.00 | 0.11 | 0.11 | 47 | 1007.2 |
| 20260503220701 | 68 | 319 | 2.0 | 9.0 | 0.00 | 0.11 | 0.11 | 46 | 1007.3 |
| 20260503220601 | 68 | 203 | 4.0 | 9.0 | 0.00 | 0.11 | 0.11 | 46 | 1007.3 |
| 20260503220501 | 68 | 338 | 3.0 | 6.0 | 0.00 | 0.11 | 0.11 | 46 | 1007.3 |
| 20260503220401 | 68 | 342 | 4.0 | 6.0 | 0.00 | 0.11 | 0.11 | 46 | 1007.3 |
| 20260503220302 | 68 | 83 | 2.0 | 6.0 | 0.00 | 0.11 | 0.11 | 46 | 1007.2 |
| 20260503220203 | 68 | 303 | 2.0 | 6.0 | 0.00 | 0.11 | 0.11 | 47 | 1007.3 |
| 20260503220000 | 68 | 75 | 1.0 | 6.0 | 0.00 | 0.11 | 0.11 | 47 | 1007.3 |
| 20260503215800 | 68 | 265 | 1.0 | 6.0 | 0.00 | 0.11 | 0.11 | 46 | 1007.3 |
| 20260503215700 | 68 | 326 | 4.0 | 5.0 | 0.00 | 0.11 | 0.11 | 46 | 1007.3 |
| 20260503215601 | 68 | 346 | 2.0 | 5.0 | 0.00 | 0.11 | 0.11 | 46 | 1007.3 |
| 20260503215500 | 69 | 306 | 2.0 | 7.0 | 0.00 | 0.11 | 0.11 | 45 | 1007.3 |
| 20260503215401 | 69 | 313 | 3.0 | 7.0 | 0.00 | 0.11 | 0.11 | 47 | 1007.3 |
| 20260503215300 | 69 | 243 | 1.0 | 7.0 | 0.00 | 0.11 | 0.11 | 48 | 1007.3 |
| 20260503215200 | 69 | 21 | 3.0 | 7.0 | 0.00 | 0.11 | 0.11 | 46 | 1007.2 |
| 20260503215100 | 68 | 316 | 2.0 | 7.0 | 0.00 | 0.11 | 0.11 | 47 | 1007.2 |
| 20260503215000 | 68 | 35 | 2.0 | 7.0 | 0.00 | 0.11 | 0.11 | 47 | 1007.3 |
| 20260503214900 | 68 | 235 | 2.0 | 7.0 | 0.00 | 0.11 | 0.11 | 47 | 1007.3 |
| 20260503214800 | 68 | 266 | 3.0 | 7.0 | 0.00 | 0.11 | 0.11 | 47 | 1007.3 |
| 20260503214600 | 68 | 82 | 2.0 | 7.0 | 0.00 | 0.11 | 0.11 | 46 | 1007.3 |
| 20260503214500 | 68 | 77 | 1.0 | 7.0 | 0.00 | 0.11 | 0.11 | 47 | 1007.4 |
| 20260503214403 | 68 | 58 | 1.0 | 7.0 | 0.00 | 0.11 | 0.11 | 46 | 1007.4 |
| 20260503214300 | 68 | 59 | 3.0 | 7.0 | 0.00 | 0.11 | 0.11 | 46 | 1007.4 |
| 20260503214100 | 68 | 4 | 2.0 | 6.0 | 0.00 | 0.11 | 0.11 | 47 | 1007.4 |
| 20260503214000 | 68 | 245 | 1.0 | 6.0 | 0.00 | 0.11 | 0.11 | 47 | 1007.4 |
| 20260503213900 | 68 | 306 | 2.0 | 6.0 | 0.00 | 0.11 | 0.11 | 47 | 1007.5 |
| 20260503213700 | 67 | 143 | 2.0 | 6.0 | 0.00 | 0.11 | 0.11 | 47 | 1007.4 |
| 20260503213600 | 67 | 103 | 2.0 | 8.0 | 0.00 | 0.11 | 0.11 | 48 | 1007.4 |
| 20260503213500 | 67 | 359 | 2.0 | 8.0 | 0.00 | 0.11 | 0.11 | 49 | 1007.4 |
| 20260503213400 | 67 | 13 | 2.0 | 8.0 | 0.00 | 0.11 | 0.11 | 47 | 1007.4 |
| 20260503213300 | 67 | 95 | 2.0 | 8.0 | 0.00 | 0.11 | 0.11 | 47 | 1007.4 |
| 20260503213202 | 67 | 335 | 0.0 | 8.0 | 0.00 | 0.11 | 0.11 | 47 | 1007.4 |
| 20260503213100 | 67 | 276 | 1.0 | 8.0 | 0.00 | 0.11 | 0.11 | 46 | 1007.4 |
| 20260503213000 | 67 | 116 | 0.0 | 8.0 | 0.00 | 0.11 | 0.11 | 45 | 1007.4 |
| 20260503212900 | 67 | 323 | 3.0 | 8.0 | 0.00 | 0.11 | 0.11 | 46 | 1007.4 |
| 20260503212800 | 67 | 281 | 4.0 | 8.0 | 0.00 | 0.11 | 0.11 | 45 | 1007.5 |
| 20260503212701 | 67 | 266 | 2.0 | 8.0 | 0.00 | 0.11 | 0.11 | 44 | 1007.5 |
| 20260503212600 | 68 | 290 | 3.0 | 8.0 | 0.00 | 0.11 | 0.11 | 45 | 1007.6 |
| 20260503212300 | 68 | 323 | 2.0 | 8.0 | 0.00 | 0.11 | 0.11 | 47 | 1007.6 |
| 20260503212200 | 68 | 351 | 3.0 | 8.0 | 0.00 | 0.11 | 0.11 | 47 | 1007.6 |
| 20260503212101 | 68 | 222 | 1.0 | 9.0 | 0.00 | 0.11 | 0.11 | 47 | 1007.5 |
| 20260503212000 | 68 | 50 | 2.0 | 9.0 | 0.00 | 0.11 | 0.11 | 48 | 1007.6 |
| 20260503211900 | 67 | 78 | 2.0 | 9.0 | 0.00 | 0.11 | 0.11 | 47 | 1007.6 |
| 20260503211800 | 67 | 27 | 5.0 | 9.0 | 0.00 | 0.11 | 0.11 | 48 | 1007.6 |
| 20260503211700 | 67 | 11 | 3.0 | 9.0 | 0.00 | 0.11 | 0.11 | 47 | 1007.7 |
| 20260503211500 | 67 | 139 | 0.0 | 9.0 | 0.00 | 0.11 | 0.11 | 47 | 1007.7 |
| 20260503211400 | 67 | 345 | 2.0 | 9.0 | 0.00 | 0.11 | 0.11 | 46 | 1007.7 |
| 20260503211300 | 67 | 46 | 4.0 | 9.0 | 0.00 | 0.11 | 0.11 | 48 | 1007.7 |
| 20260503211200 | 67 | 33 | 2.0 | 6.0 | 0.00 | 0.11 | 0.11 | 48 | 1007.8 |
| 20260503211003 | 67 | 19 | 2.0 | 6.0 | 0.00 | 0.11 | 0.11 | 48 | 1007.7 |
| 20260503210900 | 67 | 356 | 1.0 | 6.0 | 0.00 | 0.11 | 0.11 | 46 | 1007.8 |
| 20260503210700 | 67 | 167 | 1.0 | 6.0 | 0.00 | 0.11 | 0.11 | 47 | 1007.8 |
| 20260503210500 | 67 | 344 | 2.0 | 6.0 | 0.00 | 0.11 | 0.11 | 46 | 1007.8 |
| 20260503210400 | 67 | 32 | 4.0 | 6.0 | 0.00 | 0.11 | 0.11 | 49 | 1007.9 |
| 20260503210300 | 66 | 264 | 0.0 | 6.0 | 0.00 | 0.11 | 0.11 | 48 | 1007.9 |
| 20260503210200 | 66 | 285 | 2.0 | 6.0 | 0.00 | 0.11 | 0.11 | 47 | 1008.0 |
| 20260503210100 | 66 | 21 | 0.0 | 6.0 | 0.00 | 0.11 | 0.11 | 47 | 1008.0 |
| 20260503210005 | 66 | 311 | 0.0 | 6.0 | 0.00 | 0.11 | 0.11 | 46 | 1008.0 |
| 20260503205802 | 66 | 15 | 2.0 | 6.0 | 0.00 | 0.11 | 0.11 | 47 | 1008.0 |
| 20260503205701 | 67 | 4 | 1.0 | 6.0 | 0.00 | 0.11 | 0.11 | 47 | 1008.1 |
| 20260503205601 | 66 | 333 | 2.0 | 7.0 | 0.00 | 0.11 | 0.11 | 49 | 1008.0 |
| 20260503205501 | 66 | 91 | 2.0 | 7.0 | 0.00 | 0.11 | 0.11 | 49 | 1008.1 |
| 20260503205401 | 66 | 327 | 2.0 | 7.0 | 0.00 | 0.11 | 0.11 | 49 | 1008.1 |
| 20260503205303 | 66 | 50 | 3.0 | 7.0 | 0.00 | 0.11 | 0.11 | 48 | 1008.2 |
| 20260503205201 | 66 | 326 | 2.0 | 7.0 | 0.00 | 0.11 | 0.11 | 48 | 1008.2 |
| 20260503205102 | 66 | 300 | 2.0 | 7.0 | 0.00 | 0.11 | 0.11 | 48 | 1008.1 |
| 20260503204900 | 66 | 279 | 3.0 | 7.0 | 0.00 | 0.11 | 0.11 | 48 | 1008.2 |
| 20260503204803 | 66 | 116 | 2.0 | 7.0 | 0.00 | 0.11 | 0.11 | 47 | 1008.2 |
| 20260503204601 | 66 | 62 | 1.0 | 7.0 | 0.00 | 0.11 | 0.11 | 46 | 1008.3 |
| 20260503204501 | 66 | 295 | 4.0 | 7.0 | 0.00 | 0.11 | 0.11 | 46 | 1008.2 |
| 20260503204401 | 66 | 319 | 3.0 | 7.0 | 0.00 | 0.11 | 0.11 | 48 | 1008.3 |
| 20260503204202 | 66 | 299 | 2.0 | 7.0 | 0.00 | 0.11 | 0.11 | 48 | 1008.3 |
| 20260503204002 | 66 | 24 | 1.0 | 7.0 | 0.00 | 0.11 | 0.11 | 49 | 1008.4 |
| 20260503203901 | 66 | 203 | 2.0 | 7.0 | 0.00 | 0.11 | 0.11 | 49 | 1008.4 |
| 20260503203802 | 66 | 10 | 2.0 | 7.0 | 0.00 | 0.11 | 0.11 | 49 | 1008.4 |
| 20260503203702 | 66 | 113 | 2.0 | 7.0 | 0.00 | 0.11 | 0.11 | 50 | 1008.5 |
| 20260503203602 | 66 | 39 | 2.0 | 7.0 | 0.00 | 0.11 | 0.11 | 49 | 1008.6 |
| 20260503203501 | 66 | 160 | 3.0 | 7.0 | 0.00 | 0.11 | 0.11 | 48 | 1008.6 |
| 20260503203401 | 66 | 293 | 2.0 | 9.0 | 0.00 | 0.11 | 0.11 | 47 | 1008.6 |
| 20260503203301 | 66 | 37 | 2.0 | 9.0 | 0.00 | 0.11 | 0.11 | 47 | 1008.8 |
| 20260503203101 | 66 | 70 | 0.0 | 9.0 | 0.00 | 0.11 | 0.11 | 47 | 1008.8 |
| 20260503203002 | 66 | 307 | 6.0 | 9.0 | 0.00 | 0.11 | 0.11 | 47 | 1008.8 |
| 20260503202903 | 66 | 32 | 0.0 | 9.0 | 0.00 | 0.11 | 0.11 | 48 | 1008.7 |
| 20260503202601 | 66 | 202 | 4.0 | 9.0 | 0.00 | 0.11 | 0.11 | 47 | 1008.8 |
| 20260503202501 | 66 | 298 | 3.0 | 8.0 | 0.00 | 0.11 | 0.11 | 47 | 1008.8 |
| 20260503202401 | 66 | 115 | 0.0 | 8.0 | 0.00 | 0.11 | 0.11 | 46 | 1008.9 |
| 20260503202304 | 66 | 300 | 3.0 | 8.0 | 0.00 | 0.11 | 0.11 | 46 | 1008.9 |
| 20260503202101 | 66 | 294 | 2.0 | 8.0 | 0.00 | 0.11 | 0.11 | 45 | 1008.8 |
| 20260503202001 | 66 | 321 | 4.0 | 8.0 | 0.00 | 0.11 | 0.11 | 45 | 1008.9 |
| 20260503201901 | 66 | 345 | 5.0 | 8.0 | 0.00 | 0.11 | 0.11 | 47 | 1008.9 |
| 20260503201801 | 66 | 187 | 0.0 | 8.0 | 0.00 | 0.11 | 0.11 | 46 | 1009.0 |
| 20260503201701 | 66 | 277 | 2.0 | 8.0 | 0.00 | 0.11 | 0.11 | 45 | 1009.0 |
| 20260503201601 | 66 | 342 | 3.0 | 8.0 | 0.00 | 0.11 | 0.11 | 46 | 1009.0 |
| 20260503201401 | 66 | 329 | 2.0 | 8.0 | 0.00 | 0.11 | 0.11 | 46 | 1009.0 |
| 20260503201301 | 66 | 299 | 2.0 | 9.0 | 0.00 | 0.11 | 0.11 | 45 | 1009.0 |
| 20260503201201 | 66 | 222 | 3.0 | 9.0 | 0.00 | 0.11 | 0.11 | 46 | 1008.9 |
| 20260503201003 | 66 | 328 | 4.0 | 10.0 | 0.00 | 0.11 | 0.11 | 45 | 1009.0 |
| 20260503200802 | 67 | 340 | 1.0 | 10.0 | 0.00 | 0.11 | 0.11 | 45 | 1009.0 |
| 20260503200401 | 67 | 146 | 2.0 | 13.0 | 0.00 | 0.11 | 0.11 | 45 | 1009.0 |
| 20260503200302 | 67 | 231 | 6.0 | 13.0 | 0.00 | 0.11 | 0.11 | 44 | 1008.9 |
| 20260503200201 | 67 | 103 | 3.0 | 13.0 | 0.00 | 0.11 | 0.11 | 44 | 1009.1 |
| 20260503200000 | 67 | 275 | 6.0 | 13.0 | 0.00 | 0.11 | 0.11 | 45 | 1009.1 |
| 20260503195802 | 67 | 78 | 4.0 | 13.0 | 0.00 | 0.11 | 0.11 | 45 | 1009.2 |
| 20260503195702 | 67 | 60 | 3.0 | 13.0 | 0.00 | 0.11 | 0.11 | 46 | 1009.2 |
| 20260503195602 | 67 | 356 | 2.0 | 13.0 | 0.00 | 0.11 | 0.11 | 47 | 1009.1 |
| 20260503195402 | 67 | 318 | 2.0 | 11.0 | 0.00 | 0.11 | 0.11 | 46 | 1009.2 |
| 20260503195202 | 66 | 25 | 3.0 | 11.0 | 0.00 | 0.11 | 0.11 | 47 | 1009.2 |
| 20260503195101 | 66 | 316 | 1.0 | 11.0 | 0.00 | 0.11 | 0.11 | 45 | 1009.1 |
| 20260503194901 | 67 | 312 | 5.0 | 12.0 | 0.00 | 0.11 | 0.11 | 48 | 1009.2 |
| 20260503194801 | 67 | 338 | 2.0 | 12.0 | 0.00 | 0.11 | 0.11 | 46 | 1009.2 |
| 20260503194701 | 66 | 229 | 4.0 | 13.0 | 0.00 | 0.11 | 0.11 | 47 | 1009.2 |
| 20260503194502 | 67 | 321 | 7.0 | 13.0 | 0.00 | 0.11 | 0.11 | 47 | 1009.3 |
| 20260503194401 | 67 | 75 | 4.0 | 13.0 | 0.00 | 0.11 | 0.11 | 46 | 1009.4 |
| 20260503194302 | 67 | 327 | 5.0 | 13.0 | 0.00 | 0.11 | 0.11 | 47 | 1009.3 |
| 20260503194202 | 67 | 264 | 4.0 | 13.0 | 0.00 | 0.11 | 0.11 | 47 | 1009.3 |
| 20260503194101 | 67 | 338 | 5.0 | 13.0 | 0.00 | 0.11 | 0.11 | 46 | 1009.2 |
| 20260503194001 | 67 | 145 | 8.0 | 13.0 | 0.00 | 0.11 | 0.11 | 47 | 1009.4 |
| 20260503193901 | 66 | 200 | 3.0 | 13.0 | 0.00 | 0.11 | 0.11 | 46 | 1009.6 |
| 20260503193701 | 66 | 280 | 5.0 | 8.0 | 0.00 | 0.11 | 0.11 | 50 | 1009.5 |
| 20260503193601 | 66 | 350 | 4.0 | 8.0 | 0.00 | 0.11 | 0.11 | 50 | 1009.5 |
| 20260503193502 | 65 | 278 | 2.0 | 8.0 | 0.00 | 0.11 | 0.11 | 50 | 1009.5 |
| 20260503193302 | 65 | 21 | 2.0 | 11.0 | 0.00 | 0.11 | 0.11 | 46 | 1009.5 |
| 20260503193200 | 65 | 142 | 3.0 | 11.0 | 0.00 | 0.11 | 0.11 | 48 | 1009.6 |
| 20260503193101 | 65 | 134 | 2.0 | 11.0 | 0.00 | 0.11 | 0.11 | 48 | 1009.6 |
| 20260503193003 | 65 | 131 | 2.0 | 11.0 | 0.00 | 0.11 | 0.11 | 47 | 1009.6 |
| 20260503192901 | 65 | 25 | 1.0 | 11.0 | 0.00 | 0.11 | 0.11 | 47 | 1009.6 |
| 20260503192702 | 66 | 226 | 3.0 | 11.0 | 0.00 | 0.11 | 0.11 | 48 | 1009.5 |
| 20260503192601 | 66 | 325 | 2.0 | 11.0 | 0.00 | 0.11 | 0.11 | 47 | 1009.4 |
| 20260503192502 | 66 | 312 | 7.0 | 11.0 | 0.00 | 0.11 | 0.11 | 51 | 1009.5 |
| 20260503192401 | 66 | 284 | 0.0 | 8.0 | 0.00 | 0.11 | 0.11 | 52 | 1009.5 |
| 20260503192301 | 66 | 322 | 4.0 | 8.0 | 0.00 | 0.11 | 0.11 | 51 | 1009.6 |
| 20260503192202 | 65 | 38 | 2.0 | 8.0 | 0.00 | 0.11 | 0.11 | 51 | 1009.5 |
| 20260503192101 | 65 | 260 | 6.0 | 8.0 | 0.00 | 0.11 | 0.11 | 51 | 1009.6 |
| 20260503192001 | 65 | 169 | 3.0 | 7.0 | 0.00 | 0.11 | 0.11 | 51 | 1009.6 |
| 20260503191903 | 65 | 60 | 6.0 | 8.0 | 0.00 | 0.11 | 0.11 | 53 | 1009.5 |
| 20260503191801 | 65 | 213 | 1.0 | 8.0 | 0.00 | 0.11 | 0.11 | 53 | 1009.6 |
| 20260503191701 | 65 | 248 | 5.0 | 8.0 | 0.00 | 0.11 | 0.11 | 53 | 1009.7 |
| 20260503191503 | 65 | 356 | 4.0 | 8.0 | 0.00 | 0.11 | 0.11 | 54 | 1009.7 |
| 20260503191401 | 65 | 354 | 3.0 | 8.0 | 0.00 | 0.11 | 0.11 | 55 | 1009.7 |
| 20260503191303 | 65 | 98 | 2.0 | 8.0 | 0.00 | 0.11 | 0.11 | 56 | 1009.6 |
| 20260503191202 | 65 | 340 | 1.0 | 8.0 | 0.00 | 0.11 | 0.11 | 59 | 1009.7 |
| 20260503191101 | 65 | 79 | 4.0 | 8.0 | 0.00 | 0.11 | 0.11 | 56 | 1009.8 |
| 20260503191001 | 65 | 64 | 3.0 | 7.0 | 0.00 | 0.11 | 0.11 | 57 | 1009.8 |
| 20260503190904 | 64 | 83 | 2.0 | 8.0 | 0.00 | 0.11 | 0.11 | 58 | 1009.8 |
| 20260503190801 | 64 | 96 | 3.0 | 8.0 | 0.00 | 0.11 | 0.11 | 57 | 1009.8 |
| 20260503190701 | 64 | 127 | 5.0 | 8.0 | 0.00 | 0.11 | 0.11 | 57 | 1009.7 |
| 20260503190602 | 64 | 84 | 2.0 | 8.0 | 0.00 | 0.11 | 0.11 | 60 | 1009.7 |
| 20260503190501 | 64 | 189 | 2.0 | 9.0 | 0.00 | 0.11 | 0.11 | 58 | 1009.8 |
| 20260503190401 | 64 | 98 | 4.0 | 9.0 | 0.00 | 0.11 | 0.11 | 58 | 1009.8 |
| 20260503190302 | 63 | 51 | 3.0 | 9.0 | 0.00 | 0.11 | 0.11 | 59 | 1009.8 |
| 20260503190104 | 63 | 70 | 2.0 | 9.0 | 0.00 | 0.11 | 0.11 | 61 | 1009.8 |
| 20260503190003 | 63 | 146 | 1.0 | 9.0 | 0.00 | 0.11 | 0.11 | 59 | 1009.8 |
| 20260503185900 | 63 | 192 | 3.0 | 9.0 | 0.00 | 0.11 | 0.11 | 59 | 1009.8 |
| 20260503185800 | 63 | 127 | 7.0 | 11.0 | 0.00 | 0.11 | 0.11 | 61 | 1009.8 |
| 20260503185700 | 63 | 157 | 3.0 | 11.0 | 0.00 | 0.11 | 0.11 | 63 | 1009.8 |
| 20260503185559 | 62 | 75 | 3.0 | 11.0 | 0.00 | 0.11 | 0.11 | 61 | 1009.8 |
| 20260503185500 | 62 | 71 | 4.0 | 11.0 | 0.00 | 0.11 | 0.11 | 60 | 1009.8 |
| 20260503185359 | 62 | 141 | 2.0 | 11.0 | 0.00 | 0.11 | 0.11 | 61 | 1009.7 |
| 20260503185300 | 62 | 141 | 2.0 | 11.0 | 0.00 | 0.11 | 0.11 | 62 | 1009.9 |
| 20260503185200 | 62 | 163 | 2.0 | 11.0 | 0.00 | 0.11 | 0.11 | 61 | 1009.7 |
| 20260503185000 | 62 | 138 | 7.0 | 11.0 | 0.00 | 0.11 | 0.11 | 62 | 1009.8 |
| 20260503184900 | 62 | 113 | 5.0 | 11.0 | 0.00 | 0.11 | 0.11 | 62 | 1009.9 |
| 20260503184800 | 62 | 125 | 5.0 | 11.0 | 0.00 | 0.11 | 0.11 | 62 | 1009.9 |
| 20260503184700 | 61 | 122 | 6.0 | 12.0 | 0.00 | 0.11 | 0.11 | 64 | 1009.8 |
| 20260503184500 | 61 | 124 | 5.0 | 12.0 | 0.00 | 0.11 | 0.11 | 62 | 1009.9 |
| 20260503184401 | 61 | 72 | 4.0 | 12.0 | 0.00 | 0.11 | 0.11 | 64 | 1009.9 |
| 20260503184301 | 61 | 86 | 2.0 | 12.0 | 0.00 | 0.11 | 0.11 | 63 | 1009.9 |
| 20260503184100 | 61 | 113 | 2.0 | 12.0 | 0.00 | 0.11 | 0.11 | 64 | 1010.0 |
| 20260503184000 | 61 | 105 | 6.0 | 12.0 | 0.00 | 0.11 | 0.11 | 64 | 1010.1 |
| 20260503183900 | 61 | 342 | 4.0 | 13.0 | 0.00 | 0.11 | 0.11 | 65 | 1010.1 |
| 20260503183801 | 60 | 130 | 7.0 | 13.0 | 0.00 | 0.11 | 0.11 | 67 | 1010.2 |
| 20260503183700 | 60 | 95 | 4.0 | 13.0 | 0.00 | 0.11 | 0.11 | 68 | 1010.1 |
| 20260503183559 | 60 | 143 | 6.0 | 13.0 | 0.00 | 0.11 | 0.11 | 67 | 1010.2 |
| 20260503183500 | 60 | 143 | 3.0 | 14.0 | 0.00 | 0.11 | 0.11 | 70 | 1010.2 |
| 20260503183400 | 59 | 130 | 8.0 | 14.0 | 0.00 | 0.11 | 0.11 | 69 | 1010.3 |
| 20260503183159 | 59 | 127 | 7.0 | 14.0 | 0.00 | 0.11 | 0.11 | 69 | 1010.2 |
| 20260503183100 | 59 | 122 | 8.0 | 15.0 | 0.00 | 0.11 | 0.11 | 68 | 1010.3 |
| 20260503183001 | 59 | 148 | 8.0 | 15.0 | 0.00 | 0.11 | 0.11 | 69 | 1010.3 |
| 20260503182901 | 58 | 124 | 4.0 | 15.0 | 0.00 | 0.11 | 0.11 | 70 | 1010.3 |
| 20260503182759 | 58 | 110 | 7.0 | 15.0 | 0.00 | 0.11 | 0.11 | 69 | 1010.2 |
| 20260503182701 | 58 | 113 | 6.0 | 15.0 | 0.00 | 0.11 | 0.11 | 68 | 1010.4 |
| 20260503182500 | 58 | 119 | 7.0 | 16.0 | 0.00 | 0.11 | 0.11 | 68 | 1010.4 |
| 20260503182400 | 58 | 123 | 5.0 | 16.0 | 0.00 | 0.11 | 0.11 | 68 | 1010.4 |
| 20260503182301 | 58 | 137 | 10.0 | 16.0 | 0.00 | 0.11 | 0.11 | 68 | 1010.4 |
| 20260503182200 | 58 | 126 | 9.0 | 16.0 | 0.00 | 0.11 | 0.11 | 70 | 1010.5 |
| 20260503182100 | 58 | 155 | 5.0 | 16.0 | 0.00 | 0.11 | 0.11 | 69 | 1010.5 |
| 20260503182003 | 58 | 152 | 7.0 | 16.0 | 0.00 | 0.11 | 0.11 | 68 | 1010.6 |
| 20260503181902 | 58 | 86 | 3.0 | 16.0 | 0.00 | 0.11 | 0.11 | 68 | 1010.6 |
| 20260503181800 | 58 | 97 | 5.0 | 16.0 | 0.00 | 0.11 | 0.11 | 68 | 1010.6 |
| 20260503181700 | 58 | 130 | 3.0 | 15.0 | 0.00 | 0.11 | 0.11 | 69 | 1010.7 |
| 20260503181601 | 58 | 150 | 6.0 | 15.0 | 0.00 | 0.11 | 0.11 | 70 | 1010.7 |
| 20260503181400 | 57 | 90 | 5.0 | 14.0 | 0.01 | 0.11 | 0.11 | 72 | 1010.9 |
| 20260503181300 | 57 | 136 | 8.0 | 14.0 | 0.01 | 0.11 | 0.11 | 71 | 1010.9 |
| 20260503181201 | 57 | 132 | 6.0 | 14.0 | 0.01 | 0.11 | 0.11 | 72 | 1010.9 |
| 20260503181100 | 57 | 123 | 3.0 | 14.0 | 0.01 | 0.11 | 0.11 | 72 | 1010.9 |
| 20260503181000 | 57 | 127 | 4.0 | 14.0 | 0.01 | 0.11 | 0.11 | 71 | 1011.1 |
| 20260503180900 | 56 | 131 | 4.0 | 14.0 | 0.01 | 0.11 | 0.11 | 71 | 1011.0 |
| 20260503180801 | 56 | 120 | 9.0 | 14.0 | 0.01 | 0.11 | 0.11 | 72 | 1011.1 |
| 20260503180600 | 56 | 135 | 4.0 | 10.0 | 0.02 | 0.11 | 0.11 | 72 | 1011.1 |
| 20260503180401 | 56 | 148 | 6.0 | 12.0 | 0.02 | 0.11 | 0.11 | 74 | 1011.1 |
| 20260503180201 | 55 | 140 | 4.0 | 12.0 | 0.02 | 0.11 | 0.11 | 73 | 1011.2 |
| 20260503180059 | 55 | 115 | 7.0 | 12.0 | 0.02 | 0.11 | 0.11 | 73 | 1011.2 |
| 20260503180004 | 55 | 87 | 4.0 | 12.0 | 0.02 | 0.11 | 0.11 | 74 | 1011.2 |
| 20260503175901 | 55 | 140 | 7.0 | 12.0 | 0.02 | 0.11 | 0.11 | 74 | 1011.3 |
| 20260503175702 | 55 | 124 | 4.0 | 12.0 | 0.02 | 0.11 | 0.11 | 75 | 1011.4 |
| 20260503175601 | 55 | 125 | 7.0 | 12.0 | 0.02 | 0.11 | 0.11 | 75 | 1011.3 |
| 20260503175502 | 55 | 176 | 5.0 | 12.0 | 0.02 | 0.11 | 0.11 | 75 | 1011.5 |
| 20260503175301 | 55 | 117 | 7.0 | 9.0 | 0.02 | 0.11 | 0.11 | 78 | 1011.4 |
| 20260503175201 | 54 | 122 | 4.0 | 9.0 | 0.02 | 0.11 | 0.11 | 79 | 1011.5 |
| 20260503175102 | 54 | 121 | 8.0 | 9.0 | 0.02 | 0.11 | 0.11 | 79 | 1011.5 |
| 20260503175002 | 54 | 147 | 4.0 | 10.0 | 0.02 | 0.11 | 0.11 | 79 | 1011.5 |
| 20260503174802 | 53 | 136 | 7.0 | 10.0 | 0.02 | 0.11 | 0.11 | 79 | 1011.6 |
| 20260503174559 | 53 | 134 | 4.0 | 10.0 | 0.02 | 0.11 | 0.11 | 80 | 1011.6 |
| 20260503174503 | 53 | 108 | 9.0 | 10.0 | 0.02 | 0.11 | 0.11 | 80 | 1011.7 |
| 20260503174402 | 52 | 117 | 4.0 | 10.0 | 0.02 | 0.11 | 0.11 | 79 | 1011.7 |
| 20260503174305 | 52 | 125 | 3.0 | 10.0 | 0.02 | 0.11 | 0.11 | 80 | 1011.8 |
| 20260503174202 | 52 | 119 | 4.0 | 10.0 | 0.02 | 0.11 | 0.11 | 82 | 1011.7 |
| 20260503174101 | 52 | 110 | 1.0 | 8.0 | 0.02 | 0.11 | 0.11 | 82 | 1011.7 |
| 20260503174001 | 52 | 129 | 5.0 | 8.0 | 0.02 | 0.11 | 0.11 | 82 | 1011.7 |
| 20260503173901 | 51 | 129 | 4.0 | 8.0 | 0.02 | 0.11 | 0.11 | 82 | 1011.7 |
| 20260503173801 | 51 | 151 | 6.0 | 8.0 | 0.02 | 0.11 | 0.11 | 82 | 1011.7 |
| 20260503173701 | 51 | 150 | 4.0 | 7.0 | 0.02 | 0.11 | 0.11 | 82 | 1011.8 |
| 20260503173601 | 51 | 138 | 3.0 | 8.0 | 0.02 | 0.11 | 0.11 | 82 | 1011.8 |
| 20260503173502 | 51 | 139 | 6.0 | 8.0 | 0.02 | 0.11 | 0.11 | 82 | 1011.8 |
| 20260503173403 | 51 | 136 | 6.0 | 8.0 | 0.02 | 0.11 | 0.11 | 82 | 1011.9 |
| 20260503173201 | 50 | 139 | 4.0 | 8.0 | 0.02 | 0.11 | 0.11 | 83 | 1011.9 |
| 20260503173101 | 50 | 131 | 4.0 | 8.0 | 0.02 | 0.11 | 0.11 | 83 | 1012.0 |
| 20260503173002 | 50 | 124 | 4.0 | 8.0 | 0.02 | 0.11 | 0.11 | 83 | 1012.0 |
| 20260503172901 | 50 | 146 | 3.0 | 8.0 | 0.02 | 0.11 | 0.11 | 84 | 1012.0 |
| 20260503172801 | 50 | 116 | 5.0 | 8.0 | 0.02 | 0.11 | 0.11 | 84 | 1012.0 |
| 20260503172701 | 50 | 123 | 4.0 | 7.0 | 0.02 | 0.11 | 0.11 | 85 | 1012.0 |
| 20260503172502 | 49 | 155 | 7.0 | 7.0 | 0.03 | 0.11 | 0.11 | 85 | 1012.0 |
| 20260503172401 | 49 | 157 | 3.0 | 7.0 | 0.03 | 0.11 | 0.11 | 85 | 1012.1 |
| 20260503172301 | 49 | 141 | 4.0 | 7.0 | 0.03 | 0.11 | 0.11 | 85 | 1012.2 |
| 20260503172001 | 49 | 148 | 4.0 | 7.0 | 0.03 | 0.11 | 0.11 | 84 | 1012.2 |
| 20260503171901 | 49 | 141 | 5.0 | 8.0 | 0.03 | 0.11 | 0.11 | 84 | 1012.2 |
| 20260503171802 | 49 | 143 | 5.0 | 8.0 | 0.03 | 0.11 | 0.11 | 84 | 1012.2 |
| 20260503171700 | 49 | 146 | 6.0 | 8.0 | 0.03 | 0.11 | 0.11 | 84 | 1012.4 |
| 20260503171601 | 49 | 122 | 6.0 | 8.0 | 0.03 | 0.11 | 0.11 | 84 | 1012.5 |
| 20260503171502 | 49 | 152 | 5.0 | 8.0 | 0.02 | 0.10 | 0.10 | 84 | 1012.5 |
| 20260503171401 | 49 | 129 | 4.0 | 8.0 | 0.02 | 0.10 | 0.10 | 84 | 1012.6 |
| 20260503171302 | 48 | 139 | 6.0 | 8.0 | 0.02 | 0.10 | 0.10 | 84 | 1012.9 |
| 20260503171201 | 48 | 146 | 5.0 | 8.0 | 0.02 | 0.10 | 0.10 | 83 | 1012.9 |
| 20260503171102 | 48 | 142 | 5.0 | 7.0 | 0.02 | 0.10 | 0.10 | 83 | 1012.9 |
| 20260503171002 | 48 | 121 | 2.0 | 7.0 | 0.02 | 0.10 | 0.10 | 83 | 1012.9 |
| 20260503170901 | 48 | 115 | 3.0 | 7.0 | 0.02 | 0.10 | 0.10 | 84 | 1013.1 |
| 20260503170802 | 48 | 133 | 4.0 | 7.0 | 0.02 | 0.10 | 0.10 | 84 | 1013.2 |
| 20260503170701 | 48 | 144 | 5.0 | 7.0 | 0.01 | 0.09 | 0.09 | 84 | 1013.2 |
| 20260503170502 | 48 | 157 | 0.0 | 7.0 | 0.01 | 0.09 | 0.09 | 84 | 1013.3 |
| 20260503170401 | 48 | 146 | 0.0 | 8.0 | 0.01 | 0.09 | 0.09 | 84 | 1013.3 |
| 20260503170302 | 48 | 148 | 3.0 | 10.0 | 0.01 | 0.09 | 0.09 | 84 | 1013.3 |